Regional Weather Roundup
Issued by NWS Charleston, WV

Home | Current Version | Previous Version | Graphics & Text | Print | Product List | Glossary On
Versions: 1 2 3 4 5 6 7 8 9 10 11 12 13 14 15 16 17 18 19 20 21 22 23 24 25 26 27 28 29 30 31 32 33 34 35 36 37 38 39 40 41 42 43 44 45 46 47 48 49 50
000
ASUS41 KRLX 100510
RWRRLX
West Virginia Regional Weather Roundup
National Weather Service Charleston WV
1200 AM EST WED FEB 10 2016

Note: "fair" indicates few or no clouds below 12,000 feet with no
significant weather and/or obstructions to visibility.

WVZ003-100600-
Northern Panhandle of West Virginia

CITY           SKY/WX    TMP DP  RH WIND       PRES   REMARKS
WHEELING       CLOUDY    24  18  77 W12G20    29.72S
$$

WVZ009-100600-
Northwest West Virginia

CITY           SKY/WX    TMP DP  RH WIND       PRES   REMARKS
PARKERSBURG    CLOUDY    23  18  81 W7        29.85R
$$

WVZ006-100600-
Western West Virginia

CITY           SKY/WX    TMP DP  RH WIND       PRES   REMARKS
HUNTINGTON     LGT SNOW  22  17  81 SW8       29.89S
$$

WVZ015-100600-
West Central West Virginia

CITY           SKY/WX    TMP DP  RH WIND       PRES   REMARKS
CHARLESTON     LGT SNOW  24  16  71 W9        29.86S
$$

WVZ022-031-100600-
North Central West Virginia

CITY           SKY/WX    TMP DP  RH WIND       PRES   REMARKS
CLARKSBURG     LGT SNOW  22  19  89 SW10      29.77S
MORGANTOWN     LGT SNOW  22  17  81 SW7       29.75S
$$

WVZ025-035-042-045-100600-
Southern West Virginia

CITY           SKY/WX    TMP DP  RH WIND       PRES   REMARKS
BECKLEY        LGT SNOW  18  12  77 W10       29.75S WCI   6
LOGAN          FLURRIES  21  16  79 W8        29.84S
BLUEFIELD      LGT SNOW  15  11  83 W10G23    29.75R FOG     WCI   2
LEWISBURG      LGT SNOW  22  16  76 W6        29.74S
$$

WVZ047-100600-
Northern Mountains of West Virginia

CITY           SKY/WX    TMP DP  RH WIND       PRES   REMARKS
ELKINS         FLURRIES  20  12  71 SW8       29.74S
$$

WVZ052-100600-
Eastern Panhandle of West Virginia

CITY           SKY/WX    TMP DP  RH WIND       PRES   REMARKS
MARTINSBURG    CLOUDY    28  17  63 W13G21    29.70R
PETERSBURG     MOCLDY    28  11  50 CALM      29.74R
$$



USA.gov is the U.S. government's official web portal to all federal, state and local government web resources and services.